STARLINK-34121 (63961 NORAD) Tracking and Keplerian Element Data

This shows tracking and keplerian element data for the satellite.

Feedback or suggestion? Click here.




ElementValue
Catalog63961
NameSTARLINK-34121
Epoch Orbit3516
Epoch Day354.09824389
Epoch Year2025
RAAN265.7314
Inclination43.0021
Eccentricity0.0001509
Argument of Perigee267.9171
Mean Anonmoly92.1508
Mean Motion15.27588141
Decay Rate0.00010302
L11 63961U 25099K 25354.09824389 .00010302 00000+0 38326-3 0 9992
L22 63961 43.0021 265.7314 0001509 267.9171 92.1508 15.27588141 35165



Live tracking and technical data element details for STARLINK-34121 (NORAD 63961). STARLINK-34121 can be tracked NOW for your location showing map with azimuth and elevation plus other details from your city location.







IsCatalogInMostPopularTable: catalog: 63961, numindb: 2
Update: records affected: 1



GetName: 63961 STARLINK-34121

Hit Count: updated at: Tue, 10 Feb 2026 03:23:44 GMT